Eden Prairie, MN

7:36 PM CST on February 25, 2017 (GMT -0600)
Flying Cloud

Weather History for KFCM - April, 2013

Change the Weather History Date:

Wednesday, April 17, 2013

  Actual Average Record
Temperature  
Mean Temperature 38 °F -  
Max Temperature 42 °F 56 °F 81 °F (2016)
Min Temperature 35 °F 37 °F 28 °F (2001)
Degree Days  
Heating Degree Days 27    
Moisture  
Dew Point 31 °F    
Average Humidity 80    
Maximum Humidity 93    
Minimum Humidity 65    
Precipitation  
Precipitation 0.19 in - - ()
Sea Level Pressure  
Sea Level Pressure 30.08 in    
Wind  
Wind Speed 8 mph (NE)    
Max Wind Speed 14 mph    
Max Gust Speed 23 mph    
Visibility 6 miles    
Events Rain    
Averages and records for this station are not official NWS values.
T = Trace of Precipitation, MM = Missing Value Source: NWS Daily Summary

Daily Weather History Graph

Daily Weather History Graph

Search for Another Location

Airport or City:

Trip Planner

Search our weather history database for the weather conditions in past years. The results will help you decide how hot, cold, wet, or windy it might be!

Date:

Astronomy

Apr. 17, 2013 Rise Set
Actual Time 6:25 AM CDT 8:01 PM CDT
Civil Twilight 5:54 AM CDT 8:32 PM CDT
Nautical Twilight 5:17 AM CDT 9:10 PM CDT
Astronomical Twilight 4:37 AM CDT 9:50 PM CDT
Moon 11:35 AM CDT (4/17) 1:45 AM CDT (4/17)
Length of Visible Light 14h 38m
Length of Day
13h 36m
Waxing Crescent, 42% of the Moon is Illuminated
Apr 17
Waxing Crescent
Apr 18
First Quarter
Apr 25
Full
May 2
Last Quarter
May 9
New

Hourly Weather History & Observations

Time (CDT) Temp. Windchill Dew Point Humidity Pressure Visibility Wind Dir Wind Speed Gust Speed Precip Events Conditions
12:53 AM 36.0 °F 33.3 °F 26.1 °F 67% 30.33 in 10.0 mi North 3.5 mph - N/A   Clear
1:53 AM 35.1 °F 32.2 °F 27.0 °F 72% 30.32 in 10.0 mi NNE 3.5 mph - N/A   Clear
2:53 AM 35.1 °F 31.0 °F 27.0 °F 72% 30.32 in 10.0 mi NNE 4.6 mph - N/A   Partly Cloudy
3:53 AM 35.1 °F 31.0 °F 27.0 °F 72% 30.31 in 10.0 mi NNE 4.6 mph - N/A   Mostly Cloudy
4:53 AM 37.0 °F 31.6 °F 26.1 °F 65% 30.27 in 10.0 mi NE 6.9 mph - N/A   Mostly Cloudy
5:53 AM 37.0 °F 31.6 °F 26.1 °F 65% 30.23 in 10.0 mi NE 6.9 mph - N/A   Overcast
6:53 AM 37.0 °F 33.3 °F 26.1 °F 65% 30.28 in 10.0 mi East 4.6 mph - N/A   Overcast
7:53 AM 37.0 °F 29.3 °F 26.1 °F 65% 30.27 in 10.0 mi ENE 11.5 mph - N/A   Overcast
9:53 AM 37.9 °F 32.1 °F 27.0 °F 65% 30.25 in 10.0 mi NE 8.1 mph - N/A   Overcast
11:53 AM 37.4 °F 29.8 °F 26.6 °F 65% 30.18 in 10.0 mi ENE 11.5 mph - N/A   Overcast
12:53 PM 37.4 °F 28.9 °F 26.6 °F 65% 30.13 in 10.0 mi ENE 13.8 mph - N/A   Overcast
1:53 PM 41.0 °F 34.7 °F 30.0 °F 65% 30.09 in 10.0 mi East 10.4 mph - N/A   Overcast
2:53 PM 41.0 °F 34.7 °F 30.0 °F 65% 30.07 in 10.0 mi East 10.4 mph - N/A   Overcast
3:53 PM 41.0 °F 33.9 °F 30.9 °F 67% 30.05 in 10.0 mi NE 12.7 mph - N/A   Overcast
4:53 PM 39.9 °F 33.9 °F 30.9 °F 70% 30.03 in 10.0 mi ENE 9.2 mph - N/A   Overcast
5:53 PM 39.0 °F 31.8 °F 33.1 °F 79% 29.99 in 4.0 mi NE 11.5 mph - N/A   Haze
6:15 PM 37.4 °F 30.3 °F 33.8 °F 87% 30.00 in 1.8 mi NE 10.4 mph - 0.00 in Rain Light Rain
6:37 PM 37.4 °F 30.3 °F 33.8 °F 87% 30.01 in 1.8 mi ENE 10.4 mph - 0.01 in Rain Light Rain
6:44 PM 37.4 °F 30.3 °F 35.6 °F 93% 30.00 in 1.8 mi NE 10.4 mph - 0.01 in Rain Light Rain
6:53 PM 37.0 °F 30.4 °F 35.1 °F 93% 29.99 in 1.8 mi NE 9.2 mph - 0.01 in Rain Light Rain
6:59 PM 37.4 °F 30.3 °F 35.6 °F 93% 29.98 in 1.8 mi NE 10.4 mph - 0.01 in Rain Light Rain
7:03 PM 37.4 °F 29.8 °F 35.6 °F 93% 29.98 in 2.0 mi NE 11.5 mph - 0.01 in Rain Light Rain
7:06 PM 37.4 °F 32.1 °F 35.6 °F 93% 29.98 in 1.8 mi NE 6.9 mph - 0.01 in Rain Light Rain
7:17 PM 37.4 °F 30.3 °F 35.6 °F 93% 29.97 in 1.8 mi NE 10.4 mph - 0.01 in Rain Light Rain
7:26 PM 37.4 °F 29.8 °F 35.6 °F 93% 29.96 in 2.0 mi NE 11.5 mph - 0.01 in   Overcast
7:53 PM 37.0 °F 31.0 °F 35.1 °F 93% 29.98 in 4.0 mi NE 8.1 mph - 0.01 in   Overcast
8:12 PM 37.4 °F 29.8 °F 35.6 °F 93% 29.97 in 2.5 mi ENE 11.5 mph - 0.00 in   Overcast
8:21 PM 37.4 °F 29.8 °F 35.6 °F 93% 29.98 in 4.0 mi ENE 11.5 mph - 0.00 in Rain Light Rain
8:53 PM 37.0 °F 32.4 °F 35.1 °F 93% 30.00 in 3.0 mi NE 5.8 mph - 0.02 in Rain Light Rain
9:53 PM 36.0 °F 28.5 °F 34.0 °F 93% 29.95 in 3.0 mi NE 10.4 mph - 0.05 in Rain Rain
10:53 PM 35.1 °F 26.9 °F 32.0 °F 89% 29.90 in 6.0 mi NNE 11.5 mph 23.0 mph 0.08 in Rain Light Rain
11:53 PM 35.1 °F 26.4 °F 32.0 °F 89% 29.91 in 5.0 mi NNE 12.7 mph - 0.02 in Rain Light Rain